Theta_e
310 307 308 309 308 310 311 311 310 311 312 311 310 311 312 312 313 312 313 314 315 316 319 321 323 324 325 327 328 331 335 335 334 334 335 337 334 335 334 333 334 333 334 338
307 307 310 310 310 309 309 309 309 310 312 311 310 311 311 311 311 312 313 314 314 315 316 319 320 321 323 325 327 329 334 333 333 332 331 331 331 330 332 333 335 334 335 334
308 309 310 310 309 310 311 311 312 312 312 312 310 311 311 311 312 313 313 313 314 315 316 317 320 321 323 325 325 327 330 333 332 332 332 332 332 332 332 331 328 327 329 324
308 309 310 310 311 313 313 313 313 313 312 311 312 311 311 311 311 311 312 313 313 314 315 315 316 318 320 323 324 327 328 329 333 333 333 333 332 330 328 327 326 324 323 328
307 309 308 309 313 313 313 313 312 313 311 309 311 309 311 310 311 311 311 313 313 314 314 314 315 315 320 321 323 323 325 330 332 333 332 330 329 327 327 326 326 324 323 329
307 309 312 312 312 312 313 311 309 310 310 311 310 310 311 309 310 311 313 314 315 315 314 315 315 316 316 319 322 326 328 331 333 331 329 328 327 327 326 326 326 326 328 327
309 308 312 313 312 311 310 308 309 310 309 311 311 311 311 310 311 314 315 314 314 314 315 316 316 316 316 317 320 322 329 330 329 329 328 327 326 325 325 327 327 326 333 338
307 307 309 314 312 310 309 309 309 313 313 312 312 314 312 314 314 314 314 314 313 313 314 317 317 317 316 317 319 322 326 329 327 326 325 325 325 325 325 327 326 328 337 341
310 310 311 311 310 309 309 310 308 311 310 313 313 313 311 314 314 313 313 313 312 312 313 317 318 320 317 319 320 322 323 323 324 323 324 326 326 326 326 327 328 329 341 345
311 311 311 311 311 310 309 308 309 308 313 315 312 313 312 315 314 313 312 311 312 312 313 317 319 321 321 323 326 323 323 323 323 323 324 324 324 325 327 331 330 329 340 344
311 310 311 311 310 309 308 311 312 312 314 316 318 314 313 315 312 312 311 311 312 312 313 316 319 319 318 331 332 327 325 323 324 325 324 323 324 328 330 331 331 333 336 346
312 311 312 311 310 310 311 311 310 307 309 315 315 312 311 312 311 310 311 312 312 313 315 318 318 316 317 325 335 338 327 327 326 325 324 325 327 330 336 337 334 332 345 344
311 309 312 309 308 308 311 312 311 311 311 312 314 312 310 313 313 312 311 313 314 314 314 318 317 316 321 324 329 339 333 328 329 327 327 332 339 337 335 334 343 347 343 342
313 310 311 312 310 308 312 312 312 311 313 312 312 311 311 311 314 312 312 313 314 314 315 317 316 316 317 323 328 336 339 330 328 330 336 340 341 341 339 349 346 343 343 342
309 310 311 312 312 313 314 314 313 313 312 312 310 313 313 311 312 312 312 313 313 314 314 316 315 317 319 319 325 336 339 338 339 343 341 341 343 347 349 348 344 342 343 338
308 310 313 312 312 313 312 312 313 313 312 312 314 314 313 312 313 312 312 313 314 314 315 317 322 326 325 328 328 336 339 339 338 338 343 343 346 345 344 344 345 342 337 335
307 309 312 313 312 312 313 315 314 312 312 312 313 314 312 312 312 312 312 315 315 316 317 319 323 324 326 324 318 336 338 339 338 342 342 344 345 342 341 340 337 336 336 334
309 310 313 313 310 314 312 313 312 312 311 312 311 312 311 310 310 310 311 314 312 312 313 316 321 326 326 321 327 335 338 339 339 340 341 343 340 338 337 335 332 332 330 330
310 310 314 314 306 311 313 314 313 312 312 313 312 310 310 310 309 310 311 310 310 310 312 314 316 326 327 322 324 334 334 339 338 339 341 340 338 336 333 332 332 332 330 330
310 308 308 313 314 312 310 313 312 311 311 312 310 309 309 310 311 310 309 309 309 310 311 312 317 324 327 324 325 327 329 337 338 340 339 337 334 330 331 331 332 330 329 330
311 313 313 313 314 313 312 312 311 311 311 310 310 310 311 311 310 310 310 309 310 310 311 312 318 325 327 323 324 323 330 337 337 337 333 329 328 330 330 329 329 329 329 330
310 312 314 313 313 312 311 311 313 311 311 311 310 309 309 309 310 309 308 309 310 313 315 314 320 324 327 321 322 323 332 335 333 331 331 330 330 329 330 329 329 329 330 330
306 311 312 310 310 310 312 312 312 311 309 309 308 307 307 308 308 308 309 310 313 316 319 315 319 321 326 324 330 332 333 332 332 333 331 329 330 330 329 329 329 330 329 329
307 308 309 312 311 312 312 312 310 308 307 307 306 307 306 307 307 309 310 312 314 317 321 320 321 328 329 329 333 332 332 333 333 331 330 330 329 331 330 329 329 329 329 330
307 308 311 312 311 311 310 309 306 305 305 306 306 306 307 308 309 310 312 313 316 321 324 325 327 328 327 333 332 333 333 331 331 331 331 329 329 329 329 329 329 329 330 330
308 313 313 312 311 310 308 307 304 306 306 306 306 306 307 309 311 311 313 315 317 321 326 328 329 325 328 332 332 332 331 331 330 330 329 329 329 328 329 329 330 330 330 330
Wind_Speed
6 4 5 12 8 9 7 5 4 4 6 5 10 17 12 9 15 14 23 28 32 31 38 44 45 37 37 31 31 30 38 39 39 37 38 40 37 38 37 34 35 34 34 33
6 2 3 4 4 4 4 3 5 4 7 9 12 24 17 7 9 17 21 27 31 34 36 36 42 43 39 43 40 30 41 43 45 43 44 46 40 38 35 35 31 29 31 31
3 7 6 5 5 6 4 4 6 6 8 3 7 17 15 13 10 16 17 23 28 29 32 35 34 39 39 36 42 38 37 46 46 46 45 43 39 35 33 31 32 32 32 31
5 5 3 7 1 3 2 6 8 12 8 4 1 13 15 11 12 7 17 21 26 31 32 34 35 34 32 35 38 36 33 40 47 46 43 41 37 34 31 31 29 32 33 29
7 5 5 5 2 2 5 4 6 7 9 3 3 5 17 13 19 16 14 25 31 32 37 41 39 38 31 32 33 41 39 35 38 44 42 35 36 32 30 28 29 29 30 32
10 6 2 3 2 2 1 2 5 3 0 4 3 7 24 7 13 14 11 20 23 21 23 28 32 34 36 30 30 29 33 32 37 39 38 37 36 33 33 32 30 27 27 30
3 5 2 3 1 3 4 5 4 4 2 5 4 7 16 14 13 2 6 16 26 27 27 29 31 32 36 36 31 35 35 38 38 37 37 38 39 35 33 31 27 26 26 28
3 6 4 0 2 4 3 6 4 5 5 12 13 8 6 4 2 5 6 14 24 33 32 32 32 33 36 35 33 35 36 39 37 38 38 39 39 37 35 31 28 26 25 27
3 3 6 6 3 3 3 4 8 4 5 4 6 7 8 6 5 9 11 14 27 37 36 32 31 26 32 33 32 35 42 43 42 40 37 37 37 40 35 32 29 24 26 24
4 5 6 1 5 5 5 4 2 2 4 5 5 7 6 8 11 9 11 16 30 37 36 32 28 25 26 25 24 32 38 44 40 35 36 35 35 34 32 32 29 28 27 24
1 3 4 4 3 5 5 1 3 2 4 3 5 5 6 10 12 8 9 21 28 38 36 31 29 27 29 19 22 20 27 35 37 39 38 32 29 25 27 30 28 26 23 24
1 1 4 7 15 11 5 5 3 4 5 4 4 11 14 17 8 8 15 22 31 30 24 19 19 28 29 23 18 23 25 24 25 30 31 28 24 24 28 28 25 23 24 21
3 1 4 6 5 5 2 4 6 4 3 8 5 9 7 5 9 20 17 22 25 27 21 9 22 35 29 31 22 22 26 26 24 28 27 23 21 23 24 23 23 25 24 24
11 4 7 8 9 6 14 17 16 10 7 10 13 20 20 14 11 11 16 23 23 30 28 17 40 42 36 34 24 13 19 27 30 30 25 21 22 24 24 26 26 26 26 25
5 5 6 11 16 18 21 22 20 17 15 12 16 10 13 8 10 17 24 22 23 30 29 33 40 40 35 38 35 13 20 25 27 24 24 25 26 25 28 28 28 26 28 24
3 5 3 17 16 17 17 15 18 17 16 8 7 11 3 14 18 9 18 19 27 25 26 29 31 27 27 23 33 27 29 29 25 25 27 29 29 28 29 27 31 30 28 25
5 4 3 10 6 13 7 3 4 5 5 4 6 5 10 14 15 17 22 24 20 22 20 28 25 17 18 29 36 22 37 30 29 29 29 32 34 27 25 28 30 31 29 24
6 5 3 6 4 3 3 4 2 6 12 9 10 6 9 15 25 29 23 10 25 31 32 34 33 20 19 19 14 12 31 35 33 32 34 31 28 31 32 31 28 27 25 22
14 5 3 3 3 7 7 3 1 2 12 2 4 11 16 24 27 17 15 30 33 35 35 33 34 23 31 34 13 16 8 34 33 35 34 34 33 34 31 30 28 27 25 21
5 4 4 3 4 4 3 3 2 4 7 3 7 9 13 21 13 13 30 42 42 36 36 36 38 27 31 27 10 9 29 34 39 40 35 32 29 29 30 29 28 26 23 21
2 2 6 7 4 6 3 3 1 0 6 13 22 20 18 11 17 38 36 41 37 43 39 32 33 25 27 17 15 23 23 42 38 35 33 29 29 30 28 27 25 23 21 20
3 3 3 2 4 6 5 2 4 4 19 20 22 21 23 29 28 36 38 35 39 36 32 23 27 28 18 12 30 40 24 37 38 38 36 31 33 30 27 25 24 22 20 19
3 3 3 5 5 4 10 16 24 19 14 26 27 25 27 27 31 32 36 35 32 31 28 21 25 33 15 22 23 14 40 40 38 37 34 29 28 27 28 25 23 21 21 22
5 11 4 6 3 6 17 20 13 24 27 27 31 28 28 29 29 33 33 32 30 29 24 20 29 22 15 10 17 36 35 33 35 36 32 28 25 29 27 22 21 21 23 21
10 5 5 5 12 17 13 21 31 32 27 27 26 27 27 26 30 30 26 29 26 25 19 17 19 16 14 3 29 31 36 37 34 32 31 27 27 27 26 23 21 19 17 16
4 3 2 4 16 8 17 22 31 32 29 25 24 27 24 24 25 25 28 25 22 21 21 18 12 13 13 12 35 37 36 34 32 31 29 28 29 27 24 23 22 18 15 15
Wind_Direction
311 91 195 235 212 235 259 264 266 276 290 326 286 292 292 296 300 309 307 305 303 307 289 271 263 261 259 269 254 246 221 212 217 217 217 223 229 230 236 243 245 250 253 255
7 279 272 274 321 317 323 323 313 266 342 337 305 287 285 270 273 282 285 290 296 297 305 297 283 265 256 256 258 250 229 226 219 218 222 225 231 239 244 249 242 249 256 264
185 255 291 316 308 12 6 53 334 311 333 281 341 296 306 307 273 296 301 301 297 299 300 304 303 278 267 254 254 256 241 232 229 225 225 222 226 233 239 247 257 259 262 267
260 264 319 319 29 91 347 352 330 320 339 280 42 288 287 287 293 282 295 305 304 303 303 303 298 299 284 264 256 252 253 247 234 228 225 223 224 233 246 258 267 266 262 258
252 251 301 307 209 112 228 330 298 300 286 275 251 276 276 312 291 292 292 288 289 289 294 297 294 293 291 277 260 256 255 246 237 229 229 235 245 254 259 260 260 261 255 250
237 249 150 178 227 179 255 329 319 321 36 269 191 209 280 271 273 275 317 350 342 332 314 304 300 294 290 289 269 256 235 231 223 223 232 242 250 257 260 254 251 258 252 242
333 256 157 166 181 345 82 52 332 337 347 239 346 310 262 284 280 87 297 315 332 329 325 313 299 292 289 289 284 258 235 223 221 224 233 243 251 255 255 252 255 260 245 234
137 335 38 204 250 247 223 162 163 262 277 288 302 258 248 109 107 260 293 320 324 328 321 318 301 298 287 284 280 257 234 221 223 232 238 246 248 250 250 248 254 253 240 235
341 267 330 331 54 97 257 176 210 229 276 249 238 287 291 323 329 325 310 317 324 322 318 314 302 315 281 281 273 260 242 237 241 246 248 243 243 245 248 246 244 242 232 237
330 297 225 288 336 274 182 245 293 358 303 262 259 255 250 307 299 286 313 324 318 312 309 304 302 316 318 274 269 248 243 245 242 248 251 249 250 248 244 237 235 232 229 236
15 166 275 358 238 267 331 354 89 104 190 259 295 263 222 251 256 285 299 303 303 301 303 303 312 318 326 305 269 238 226 229 234 241 240 241 239 233 229 229 228 225 227 226
241 219 277 247 271 268 181 182 149 135 257 226 270 264 256 254 266 271 266 295 298 303 303 308 320 327 315 312 301 274 233 218 223 228 234 227 224 228 222 219 226 224 212 210
187 296 320 326 5 1 168 204 199 209 204 232 250 275 267 263 255 253 267 303 299 318 319 319 332 335 327 321 315 306 242 227 224 214 208 210 220 217 214 205 197 196 191 178
160 205 191 250 256 249 278 273 267 245 241 265 252 281 293 287 255 259 274 282 297 319 313 4 344 331 328 327 319 297 254 216 199 196 198 208 203 204 193 189 187 181 178 174
157 219 218 248 263 270 273 277 274 273 259 250 273 250 283 284 285 259 251 294 320 318 324 349 327 323 316 315 310 239 221 194 190 191 196 191 188 188 188 183 181 180 169 161
180 252 286 288 270 271 287 293 274 261 276 262 295 273 332 305 306 288 266 301 308 314 348 316 314 329 328 325 320 264 212 202 205 206 192 186 182 184 185 183 178 167 163 172
207 206 251 271 326 311 283 253 33 344 302 216 265 271 330 325 325 317 324 329 359 344 338 330 351 299 314 322 303 258 207 199 200 191 185 174 166 163 168 163 158 163 168 174
199 158 187 281 345 253 213 170 46 302 286 268 277 294 307 304 307 308 308 345 335 335 333 334 346 314 339 327 249 213 203 191 182 185 175 163 163 160 158 160 165 166 166 170
206 145 232 256 212 288 278 165 161 7 297 260 302 328 320 314 320 312 336 322 321 321 321 323 339 318 336 332 271 190 186 190 173 182 165 159 159 159 162 161 163 165 166 175
81 133 168 211 251 248 242 170 207 283 271 181 334 318 309 318 309 303 321 318 316 315 314 322 336 331 332 320 249 204 313 182 176 161 159 161 165 162 161 163 167 167 175 177
239 222 240 257 265 272 200 154 186 230 301 320 316 314 309 298 291 297 306 307 305 306 313 320 331 329 337 324 251 279 248 172 159 158 159 157 159 161 167 166 172 173 177 176
273 197 239 247 239 268 149 168 225 235 301 302 300 301 302 297 292 293 300 300 305 313 323 319 326 327 330 272 243 247 191 157 155 157 157 157 164 167 171 172 173 177 178 178
317 184 252 205 240 222 273 265 279 289 285 293 293 296 298 288 290 294 297 301 310 316 324 318 321 322 286 217 244 180 159 158 157 160 157 164 167 170 169 173 173 175 176 174
315 305 257 329 271 283 296 299 290 310 306 299 294 297 298 288 290 290 295 300 301 308 322 324 319 305 267 243 176 164 162 165 166 161 162 162 163 167 171 177 178 174 174 173
269 292 281 256 288 288 288 308 320 315 311 303 299 298 296 291 290 289 290 292 297 312 324 315 306 261 261 93 169 168 163 158 155 155 160 160 159 165 170 175 174 177 179 181
232 216 267 286 298 269 299 305 319 308 305 306 311 307 302 297 289 287 286 282 291 295 303 296 278 188 193 141 161 155 159 156 154 160 158 162 163 169 172 175 173 176 179 179